Location: Unnamed Road
(35.9029°N, 51.9749°E)
Time: 21:10:56
(UTC+04:30)

Explorer 11/Cluster Stage 4 - Visible Passes

Search period start: 06 June 2020 00:00
Search period end: 16 June 2020 00:00
Orbit: 467 x 1259 km, 28.8° (Epoch: 05 June)

Date Brightness Start Highest point End Pass type
(mag) Time Alt. Az. Time Alt. Az. Time Alt. Az.
06 Jun 7.6 04:07:40 20° S 04:09:01 23° SSE 04:13:17 10° ESE visible
07 Jun 7.4 03:57:30 23° S 03:58:11 24° SSE 04:02:23 10° ESE visible
08 Jun 7.3 03:47:21 25° SSE 03:47:24 25° SSE 03:51:30 10° ESE visible
09 Jun 7.3 03:37:13 25° SSE 03:37:13 25° SSE 03:40:37 10° ESE visible
10 Jun 7.5 03:27:07 23° SE 03:27:07 23° SE 03:29:45 10° ESE visible
10 Jun 7.0 05:09:42 10° WSW 05:13:47 35° S 05:18:47 10° ESE visible
11 Jun 7.8 03:17:05 19° SE 03:17:05 19° SE 03:18:53 10° ESE visible
11 Jun 7.0 04:59:14 10° WSW 05:03:02 33° S 05:07:42 10° ESE visible
12 Jun 8.1 03:07:07 15° ESE 03:07:07 15° ESE 03:08:02 10° ESE visible
12 Jun 7.0 04:49:16 14° WSW 04:52:18 30° S 04:56:38 10° SE visible
13 Jun 7.0 04:39:25 18° SW 04:41:34 27° S 04:45:34 10° SE visible
14 Jun 7.0 04:29:40 21° SW 04:30:51 24° S 04:34:29 10° SE visible
15 Jun 7.1 04:20:04 21° SSW 04:20:08 21° S 04:23:24 10° SE visible
